Location: Barcelona
(41.3829°N, 2.1774°E)
Time: 20:16:52
(UTC+00:00)

ISS - Pass Details

Date: 10 July 2025
Orbit: 413 x 417 km, 51.6° (Epoch: 13 July)

Event Time Altitude Azimuth Distance (km) Brightness Sun altitude
Rises 22:21:30 0° 287° (WNW) 2,351 0.6 -22.8°
Reaches altitude 10° 22:24:12 10° 311° (NW) 1,490 -0.1 -23.0°
Maximum altitude 22:26:20 16° 350° (N) 1,191 -0.6 -23.1°
Drops below altitude 10° 22:28:28 10° 30° (NNE) 1,493 -0.5 -23.3°
Sets 22:31:11 0° 54° (NE) 2,358 0.2 -23.5°
